Погода в Кулу

Турция     39°05′20″N   33°04′51″E
темп.,
°C
ветер,
м/с
пор.,
м/с
влажн.,
%
обл.,
%
осадки,
мм/ч
давл.,
гПа
погр.,
м
9 марта, вт
вт900:00+2юз115554 0.0 101622
03:00+1з115776 0.0 101722
06:00+1зсз2255100 0.0 101722
09:00+4зсз4549100 0.0 1018208
12:00+7зсз3334100 0.0 1017893
15:00+9з3328100 0.0 10151238
18:00+9з3332100 0.0 1015380
21:00+6ссз2343100 0.0 101723
10 марта, ср
ср1000:00+4ссв234467 0.0 101724
03:00+3св224433 0.0 101722
06:00+3св234590 0.0 101622
09:00+6всв224478 0.0 1016106
12:00+10ююв4546100 0.0 1013760
15:00+13ю4542100 0.0 10101474
18:00+13юз2246100 0.0 100855
21:00+9с235583 0.0 100927
11 марта, чт
чт1100:00+8сз235930 0.0 100922
03:00+7зсз346130 0.0 100928
06:00+7сз346479 0.0 100835
09:00+8зсз356489 0.0 1008267
12:00+11з5554100 0.1 10061253
15:00+11зсз3456100 0.5 10041154
18:00+5с81088100 5.5 1005575
21:00+4с101370100 7.1 10101062
12 марта, пт
пт1200:00+2с81166100 0.0 10161084
03:00−1с8116490 0.1 1019786
06:00−2ссз710640 0.0 1023959
09:00−1с68530 0.0 10251173
12:00+1ссв45340 0.0 10241428
15:00+4с45270 0.0 10231647
18:00+4с44290 0.0 10241592
21:00+1в23450 0.0 102635
13 марта, сб
сб1300:000всв23490 0.0 102628
03:00−1ю22530 0.0 102539
06:00−1юв11540 0.0 102523
09:00+1всв33460 0.0 1025327
12:00+6ююв44410 0.0 1022759
15:00+8юв33341 0.0 1018710
18:00+8вюв2236100 0.0 1017310
21:00+5в1150100 0.0 101922